| time (UTC) | temp F | wind direction | speed knots | gust knots | rain 1hr in | rain 24hr in | rain mn in | humidity % | barometer mb |
| 20260906200051 | 85 | 92 | 3.5 | 12.2 | 0.00 | 0.70 | 0.70 | 63 | 923.3 |
| 20260906194555 | 84 | 103 | 3.5 | 8.7 | 0.00 | 0.70 | 0.70 | 65 | 923.6 |
| 20260906193045 | 83 | 123 | 4.3 | 13.9 | 0.00 | 0.70 | 0.70 | 70 | 923.7 |
| 20260906191558 | 81 | 88 | 4.3 | 12.2 | 0.00 | 0.70 | 0.70 | 73 | 923.8 |
| 20260906190038 | 80 | 77 | 4.3 | 12.2 | 0.00 | 0.70 | 0.70 | 74 | 923.9 |
| 20260906184545 | 80 | 92 | 5.2 | 13.0 | 0.00 | 0.70 | 0.70 | 76 | 924.2 |
| 20260906183036 | 78 | 360 | 7.8 | 16.5 | 0.00 | 0.70 | 0.70 | 78 | 924.3 |
| 20260906181551 | 76 | 92 | 8.7 | 17.4 | 0.00 | 0.70 | 0.70 | 81 | 924.4 |
| 20260906180031 | 76 | 82 | 7.0 | 14.8 | 0.00 | 0.70 | 0.70 | 83 | 924.7 |
| 20260906174530 | 76 | 87 | 7.0 | 15.6 | 0.00 | 0.70 | 0.70 | 83 | 925.0 |
| 20260906173031 | 75 | 83 | 7.0 | 13.9 | 0.00 | 0.70 | 0.70 | 86 | 925.3 |
| 20260906171535 | 73 | 65 | 6.1 | 11.3 | 0.00 | 0.70 | 0.70 | 89 | 925.5 |
| 20260906170027 | 72 | 69 | 7.8 | 11.3 | 0.00 | 0.70 | 0.70 | 90 | 925.8 |
| 20260906164527 | 71 | 92 | 6.1 | 9.6 | 0.01 | 0.70 | 0.70 | 92 | 925.7 |
| 20260906163027 | 70 | 101 | 1.7 | 5.2 | 0.03 | 0.70 | 0.70 | 92 | 925.5 |
| 20260906161529 | 70 | 98 | 4.3 | 8.7 | 0.06 | 0.70 | 0.70 | 92 | 925.4 |
| 20260906160025 | 70 | 88 | 5.2 | 9.6 | 0.06 | 0.70 | 0.70 | 92 | 925.2 |
| 20260906154524 | 69 | 94 | 1.7 | 6.1 | 0.07 | 0.69 | 0.69 | 92 | 925.3 |
| 20260906153023 | 69 | 139 | 0.9 | 2.6 | 0.05 | 0.67 | 0.67 | 92 | 925.7 |
| 20260906151522 | 69 | 160 | 0.9 | 5.2 | 0.04 | 0.64 | 0.64 | 92 | 926.1 |
| 20260906150028 | 69 | 80 | 1.7 | 7.0 | 0.04 | 0.63 | 0.63 | 92 | 926.2 |
| 20260906144521 | 69 | 360 | 2.6 | 8.7 | 0.04 | 0.62 | 0.62 | 92 | 926.2 |
| 20260906143021 | 69 | 98 | 4.3 | 10.4 | 0.09 | 0.62 | 0.62 | 92 | 926.5 |
| 20260906141520 | 69 | 89 | 2.6 | 7.0 | 0.10 | 0.60 | 0.60 | 91 | 926.6 |
| 20260906140021 | 69 | 103 | 3.5 | 6.1 | 0.16 | 0.59 | 0.59 | 91 | 926.7 |
| 20260906134516 | 69 | 49 | 0.0 | 2.6 | 0.22 | 0.56 | 0.56 | 91 | 926.5 |
| 20260906133016 | 69 | 49 | 0.0 | 0.0 | 0.26 | 0.53 | 0.53 | 90 | 926.7 |
| 20260906131513 | 69 | 49 | 0.0 | 0.0 | 0.40 | 0.50 | 0.50 | 90 | 926.6 |
| 20260906130011 | 69 | 46 | 0.0 | 2.6 | 0.39 | 0.42 | 0.42 | 90 | 926.4 |
| 20260906124509 | 70 | 15 | 0.9 | 3.5 | 0.34 | 0.35 | 0.35 | 89 | 926.2 |
| 20260906123012 | 70 | 46 | 0.9 | 7.0 | 0.26 | 0.26 | 0.26 | 87 | 926.3 |
| 20260906121503 | 71 | 311 | 3.5 | 14.8 | 0.10 | 0.10 | 0.10 | 86 | 926.4 |
| 20260906120100 | 71 | 321 | 5.2 | 9.6 | 0.03 | 0.03 | 0.03 | 83 | 925.6 |
| 20260906114612 | 72 | 360 | 2.6 | 4.3 | 0.01 | 0.01 | 0.01 | 79 | 924.7 |
| 20260906113106 | 72 | 267 | 2.6 | 5.2 | 0.00 | 0.00 | 0.00 | 77 | 924.0 |
| 20260906111552 | 72 | 273 | 0.0 | 1.7 | 0.00 | 0.00 | 0.00 | 78 | 923.9 |
| 20260906110049 | 72 | 273 | 1.7 | 3.5 | 0.00 | 0.00 | 0.00 | 77 | 923.8 |
| 20260906104549 | 73 | 179 | 0.0 | 3.5 | 0.00 | 0.00 | 0.00 | 74 | 923.3 |
| 20260906103047 | 73 | 171 | 1.7 | 5.2 | 0.00 | 0.00 | 0.00 | 74 | 923.1 |
| 20260906101546 | 73 | 77 | 0.0 | 0.9 | 0.00 | 0.00 | 0.00 | 74 | 923.3 |
| 20260906100045 | 73 | 77 | 0.0 | 3.5 | 0.00 | 0.00 | 0.00 | 74 | 923.2 |
| 20260906094550 | 73 | 75 | 0.0 | 2.6 | 0.00 | 0.00 | 0.00 | 74 | 923.4 |
| 20260906093042 | 74 | 44 | 0.9 | 4.3 | 0.00 | 0.00 | 0.00 | 74 | 923.5 |
| 20260906091545 | 74 | 134 | 0.0 | 4.3 | 0.00 | 0.00 | 0.00 | 73 | 923.1 |
| 20260906090038 | 75 | 135 | 0.0 | 3.5 | 0.00 | 0.00 | 0.00 | 72 | 922.9 |
| 20260906084537 | 75 | 128 | 0.0 | 5.2 | 0.00 | 0.00 | 0.00 | 70 | 922.6 |
| 20260906083036 | 76 | 128 | 0.9 | 4.3 | 0.00 | 0.00 | 0.00 | 68 | 922.8 |
| 20260906081540 | 76 | 151 | 3.5 | 9.6 | 0.00 | 0.00 | 0.00 | 68 | 922.6 |
| 20260906080036 | 76 | 360 | 1.7 | 9.6 | 0.00 | 0.00 | 0.00 | 69 | 922.8 |
| 20260906074534 | 76 | 144 | 1.7 | 3.5 | 0.00 | 0.00 | 0.00 | 69 | 922.8 |
| 20260906073041 | 77 | 140 | 1.7 | 8.7 | 0.00 | 0.00 | 0.00 | 67 | 922.9 |
| 20260906071533 | 77 | 153 | 1.7 | 9.6 | 0.00 | 0.00 | 0.00 | 65 | 922.9 |
| 20260906070030 | 77 | 360 | 2.6 | 10.4 | 0.00 | 0.00 | 0.00 | 67 | 923.0 |
| 20260906064529 | 76 | 155 | 4.3 | 8.7 | 0.00 | 0.00 | 0.00 | 70 | 923.0 |
| 20260906063022 | 75 | 140 | 2.6 | 8.7 | 0.00 | 0.00 | 0.00 | 72 | 922.9 |
| 20260906061518 | 75 | 141 | 0.9 | 7.0 | 0.00 | 0.00 | 0.00 | 72 | 923.0 |
| 20260906060013 | 75 | 142 | 0.9 | 4.3 | 0.00 | 0.00 | 0.00 | 71 | 922.9 |
| 20260906054509 | 75 | 127 | 1.7 | 6.1 | 0.00 | 0.00 | 0.00 | 72 | 922.5 |
| 20260906053005 | 75 | 126 | 1.7 | 7.0 | 0.00 | 0.00 | 0.00 | 74 | 922.7 |
| 20260906051602 | 75 | 116 | 0.9 | 5.2 | 0.00 | 0.00 | 0.00 | 73 | 922.6 |
| 20260906050111 | 75 | 126 | 1.7 | 6.1 | 0.00 | 0.00 | 0.00 | 73 | 922.6 |
| 20260906044555 | 76 | 126 | 0.9 | 3.5 | 0.00 | 0.00 | 0.00 | 72 | 922.5 |
| 20260906043057 | 76 | 130 | 0.0 | 4.3 | 0.00 | 0.00 | 0.00 | 72 | 922.6 |
| 20260906041554 | 76 | 134 | 1.7 | 4.3 | 0.00 | 0.00 | 0.00 | 71 | 922.8 |
| 20260906040053 | 76 | 110 | 0.0 | 2.6 | 0.00 | 0.00 | 0.00 | 70 | 923.0 |
| 20260906034559 | 77 | 103 | 0.0 | 3.5 | 0.00 | 0.00 | 0.00 | 69 | 922.9 |
| 20260906033053 | 77 | 136 | 0.0 | 5.2 | 0.00 | 0.00 | 0.00 | 68 | 922.7 |
| 20260906031616 | 78 | 136 | 0.9 | 8.7 | 0.00 | 0.00 | 0.00 | 67 | 922.5 |
| 20260906030052 | 78 | 128 | 0.9 | 3.5 | 0.00 | 0.00 | 0.00 | 66 | 922.4 |
| 20260906024556 | 78 | 126 | 0.9 | 2.6 | 0.00 | 0.00 | 0.00 | 65 | 922.4 |
| 20260906023106 | 79 | 136 | 0.0 | 3.5 | 0.00 | 0.00 | 0.00 | 64 | 922.4 |
| 20260906021549 | 79 | 134 | 0.9 | 3.5 | 0.00 | 0.00 | 0.00 | 63 | 922.2 |
| 20260906020055 | 80 | 116 | 0.9 | 4.3 | 0.00 | 0.00 | 0.00 | 62 | 921.8 |
| 20260906014549 | 80 | 126 | 1.7 | 6.1 | 0.00 | 0.00 | 0.00 | 61 | 921.6 |
| 20260906013048 | 81 | 108 | 2.6 | 6.1 | 0.00 | 0.00 | 0.00 | 61 | 921.6 |
| 20260906011552 | 82 | 136 | 2.6 | 8.7 | 0.00 | 0.00 | 0.00 | 59 | 921.4 |
| 20260906010047 | 83 | 105 | 3.5 | 9.6 | 0.00 | 0.00 | 0.00 | 57 | 921.4 |
| 20260906004552 | 84 | 130 | 3.5 | 8.7 | 0.00 | 0.00 | 0.00 | 56 | 921.5 |
| 20260906003050 | 84 | 90 | 2.6 | 7.8 | 0.00 | 0.00 | 0.00 | 54 | 921.5 |
| 20260906001546 | 84 | 126 | 3.5 | 8.7 | 0.00 | 0.00 | 0.00 | 54 | 921.4 |
| 20260906000047 | 84 | 94 | 3.5 | 10.4 | 0.00 | 0.00 | 0.00 | 56 | 921.6 |
| 20260905234543 | 85 | 61 | 5.2 | 12.2 | 0.00 | 0.00 | 0.00 | 55 | 921.7 |
| 20260905233048 | 86 | 104 | 5.2 | 12.2 | 0.00 | 0.00 | 0.00 | 53 | 921.6 |
| 20260905231542 | 86 | 103 | 5.2 | 11.3 | 0.00 | 0.00 | 0.00 | 54 | 921.5 |
| 20260905230041 | 86 | 104 | 6.1 | 15.6 | 0.00 | 0.00 | 0.00 | 54 | 921.6 |
| 20260905224541 | 88 | 79 | 6.1 | 12.2 | 0.00 | 0.00 | 0.00 | 50 | 921.9 |
| 20260905223041 | 91 | 140 | 5.2 | 13.9 | 0.00 | 0.00 | 0.00 | 45 | 921.8 |
| 20260905221556 | 93 | 97 | 2.6 | 12.2 | 0.00 | 0.00 | 0.00 | 43 | 921.3 |
| 20260905220041 | 94 | 83 | 3.5 | 11.3 | 0.00 | 0.00 | 0.00 | 43 | 921.0 |
| 20260905214538 | 93 | 109 | 4.3 | 13.9 | 0.00 | 0.00 | 0.00 | 45 | 920.9 |
| 20260905213036 | 93 | 88 | 7.0 | 16.5 | 0.00 | 0.00 | 0.00 | 44 | 921.2 |
| 20260905211535 | 94 | 90 | 7.8 | 15.6 | 0.00 | 0.00 | 0.00 | 40 | 921.2 |
| 20260905210037 | 96 | 81 | 6.1 | 13.0 | 0.00 | 0.00 | 0.00 | 39 | 921.5 |
| 20260905204536 | 97 | 69 | 6.1 | 13.0 | 0.00 | 0.00 | 0.00 | 40 | 921.6 |
| 20260905203032 | 97 | 105 | 5.2 | 13.9 | 0.00 | 0.00 | 0.00 | 40 | 921.7 |
| 20260905201532 | 97 | 136 | 3.5 | 10.4 | 0.00 | 0.00 | 0.00 | 40 | 921.9 |